QPF
0.02 0.03 0.03 0.04 0.04 0.03 0.04 0.04 0.03 0.03 0.04 0.03 0.02 0.01 0.01 0.01 0.01 0.01 0.01 0.01 0.01 0.03 0.05 0.04 0.03 0.03 0.02 0.02 0.02 0.01 0.01 0.03 0.03 0.02 0.01 0.01 0.01 0.00 0.00 0.00 0.00 0.00 0.00
0.04 0.05 0.06 0.07 0.06 0.05 0.05 0.05 0.03 0.04 0.04 0.03 0.03 0.02 0.01 0.01 0.01 0.02 0.02 0.02 0.01 0.02 0.03 0.05 0.04 0.03 0.03 0.02 0.01 0.01 0.01 0.02 0.02 0.02 0.01 0.01 0.01 0.01 0.00 0.01 0.00 0.00 0.00
0.06 0.06 0.06 0.07 0.07 0.06 0.07 0.06 0.05 0.04 0.03 0.03 0.04 0.04 0.02 0.02 0.02 0.03 0.03 0.03 0.02 0.02 0.02 0.02 0.04 0.04 0.04 0.03 0.01 0.01 0.02 0.01 0.02 0.01 0.01 0.01 0.01 0.01 0.00 0.01 0.01 0.01 0.01
0.05 0.06 0.07 0.07 0.07 0.06 0.07 0.08 0.06 0.06 0.05 0.05 0.06 0.05 0.03 0.03 0.03 0.05 0.04 0.03 0.02 0.02 0.02 0.02 0.02 0.04 0.05 0.05 0.04 0.03 0.02 0.03 0.02 0.02 0.01 0.01 0.01 0.01 0.01 0.01 0.01 0.01 0.01
0.05 0.07 0.07 0.07 0.06 0.06 0.07 0.06 0.07 0.08 0.08 0.08 0.06 0.06 0.05 0.06 0.05 0.04 0.03 0.03 0.02 0.02 0.03 0.02 0.02 0.02 0.04 0.04 0.08 0.08 0.07 0.05 0.04 0.03 0.02 0.02 0.02 0.02 0.01 0.01 0.01 0.01 0.02
0.05 0.06 0.07 0.07 0.07 0.08 0.08 0.08 0.11 0.12 0.10 0.09 0.05 0.05 0.05 0.05 0.05 0.05 0.03 0.03 0.02 0.02 0.02 0.04 0.04 0.02 0.02 0.03 0.05 0.09 0.10 0.07 0.06 0.05 0.04 0.04 0.04 0.03 0.02 0.02 0.02 0.02 0.02
0.05 0.06 0.08 0.11 0.11 0.10 0.10 0.09 0.09 0.11 0.09 0.08 0.08 0.07 0.05 0.05 0.04 0.05 0.05 0.05 0.03 0.04 0.04 0.04 0.05 0.06 0.05 0.03 0.02 0.05 0.07 0.07 0.09 0.08 0.07 0.07 0.06 0.05 0.05 0.04 0.04 0.03 0.03
0.08 0.08 0.09 0.10 0.10 0.10 0.11 0.09 0.10 0.10 0.09 0.07 0.09 0.09 0.07 0.06 0.05 0.04 0.05 0.04 0.04 0.04 0.03 0.02 0.03 0.07 0.09 0.09 0.06 0.03 0.05 0.06 0.06 0.07 0.07 0.07 0.07 0.07 0.08 0.09 0.09 0.08 0.07
0.06 0.08 0.09 0.11 0.12 0.09 0.09 0.11 0.10 0.09 0.10 0.09 0.09 0.12 0.11 0.09 0.07 0.05 0.04 0.04 0.04 0.05 0.04 0.03 0.03 0.06 0.08 0.09 0.08 0.07 0.06 0.05 0.05 0.07 0.08 0.08 0.08 0.07 0.07 0.09 0.11 0.11 0.09
0.06 0.07 0.08 0.10 0.11 0.09 0.10 0.09 0.08 0.09 0.11 0.12 0.11 0.11 0.10 0.10 0.10 0.08 0.05 0.04 0.03 0.05 0.08 0.06 0.05 0.07 0.08 0.09 0.10 0.09 0.08 0.05 0.04 0.06 0.08 0.08 0.08 0.07 0.06 0.07 0.09 0.11 0.12
0.07 0.05 0.07 0.09 0.10 0.10 0.10 0.10 0.09 0.08 0.08 0.11 0.13 0.12 0.11 0.12 0.12 0.10 0.07 0.06 0.05 0.05 0.09 0.09 0.08 0.08 0.08 0.08 0.07 0.06 0.04 0.04 0.04 0.04 0.05 0.07 0.10 0.10 0.10 0.10 0.10 0.13 0.14
0.07 0.06 0.05 0.08 0.10 0.11 0.11 0.11 0.10 0.08 0.09 0.11 0.13 0.14 0.14 0.12 0.12 0.13 0.12 0.11 0.09 0.06 0.06 0.07 0.08 0.08 0.08 0.08 0.07 0.06 0.06 0.05 0.05 0.04 0.03 0.04 0.07 0.09 0.09 0.09 0.10 0.11 0.13
0.06 0.06 0.06 0.08 0.07 0.08 0.10 0.09 0.08 0.09 0.10 0.12 0.15 0.17 0.13 0.11 0.11 0.12 0.13 0.14 0.13 0.09 0.08 0.08 0.09 0.08 0.08 0.10 0.11 0.10 0.10 0.10 0.10 0.10 0.09 0.08 0.07 0.07 0.09 0.10 0.12 0.16 0.20
0.07 0.08 0.08 0.07 0.05 0.04 0.05 0.08 0.07 0.07 0.07 0.08 0.08 0.11 0.10 0.09 0.11 0.12 0.14 0.16 0.15 0.12 0.10 0.11 0.11 0.11 0.12 0.12 0.11 0.10 0.08 0.08 0.09 0.10 0.11 0.09 0.09 0.09 0.10 0.10 0.11 0.16 0.20
0.06 0.06 0.07 0.06 0.05 0.05 0.06 0.08 0.07 0.06 0.06 0.07 0.08 0.09 0.08 0.08 0.08 0.09 0.12 0.15 0.16 0.13 0.10 0.10 0.10 0.10 0.11 0.11 0.12 0.09 0.08 0.09 0.09 0.10 0.10 0.10 0.10 0.11 0.13 0.14 0.14 0.13 0.14
0.06 0.06 0.04 0.03 0.04 0.04 0.04 0.07 0.07 0.04 0.04 0.04 0.05 0.06 0.07 0.06 0.06 0.06 0.07 0.08 0.09 0.11 0.10 0.07 0.07 0.07 0.08 0.08 0.09 0.08 0.09 0.10 0.09 0.09 0.08 0.09 0.10 0.12 0.17 0.21 0.23 0.24 0.24
0.05 0.04 0.03 0.03 0.04 0.03 0.03 0.05 0.05 0.04 0.04 0.04 0.04 0.05 0.05 0.05 0.05 0.05 0.06 0.06 0.07 0.08 0.08 0.05 0.06 0.07 0.07 0.07 0.07 0.07 0.07 0.06 0.07 0.06 0.06 0.07 0.08 0.11 0.16 0.21 0.26 0.27 0.27
0.05 0.05 0.04 0.04 0.03 0.03 0.03 0.04 0.05 0.05 0.05 0.05 0.05 0.05 0.04 0.05 0.05 0.04 0.04 0.04 0.06 0.06 0.06 0.06 0.07 0.08 0.07 0.08 0.09 0.08 0.08 0.08 0.08 0.10 0.10 0.11 0.10 0.10 0.11 0.14 0.16 0.18 0.18
0.05 0.07 0.07 0.05 0.04 0.04 0.05 0.06 0.05 0.04 0.04 0.04 0.05 0.04 0.03 0.04 0.04 0.04 0.04 0.05 0.05 0.04 0.05 0.06 0.07 0.08 0.09 0.09 0.08 0.06 0.06 0.07 0.09 0.13 0.12 0.11 0.10 0.09 0.09 0.09 0.10 0.11 0.12
0.04 0.05 0.06 0.06 0.04 0.05 0.06 0.05 0.04 0.03 0.02 0.03 0.02 0.02 0.02 0.02 0.03 0.04 0.04 0.04 0.04 0.04 0.05 0.06 0.07 0.08 0.08 0.07 0.07 0.07 0.08 0.09 0.10 0.10 0.10 0.09 0.08 0.07 0.07 0.08 0.09 0.08 0.08
0.04 0.04 0.04 0.03 0.03 0.03 0.03 0.02 0.02 0.03 0.03 0.04 0.03 0.03 0.03 0.02 0.02 0.03 0.02 0.02 0.03 0.04 0.06 0.07 0.05 0.05 0.06 0.06 0.06 0.07 0.07 0.08 0.08 0.08 0.06 0.05 0.04 0.04 0.06 0.07 0.07 0.06 0.05
0.03 0.03 0.03 0.03 0.03 0.02 0.01 0.01 0.02 0.03 0.04 0.03 0.03 0.02 0.02 0.02 0.02 0.01 0.01 0.02 0.03 0.04 0.06 0.06 0.04 0.04 0.05 0.04 0.04 0.04 0.05 0.06 0.05 0.05 0.05 0.06 0.05 0.06 0.06 0.07 0.08 0.06 0.05
0.02 0.02 0.03 0.03 0.02 0.01 0.01 0.01 0.02 0.03 0.03 0.02 0.02 0.02 0.02 0.02 0.02 0.02 0.02 0.02 0.01 0.01 0.01 0.02 0.02 0.02 0.02 0.02 0.03 0.03 0.04 0.04 0.04 0.04 0.05 0.08 0.08 0.10 0.11 0.12 0.11 0.09 0.09
0.01 0.01 0.01 0.01 0.01 0.01 0.01 0.01 0.01 0.02 0.03 0.03 0.04 0.04 0.04 0.03 0.03 0.02 0.01 0.00 0.00 0.00 0.00 0.01 0.02 0.02 0.02 0.02 0.02 0.02 0.03 0.03 0.03 0.03 0.05 0.06 0.08 0.09 0.11 0.11 0.11 0.10 0.10
0.01 0.01 0.00 0.01 0.01 0.01 0.01 0.01 0.02 0.04 0.06 0.08 0.10 0.08 0.07 0.05 0.04 0.03 0.01 0.00 0.00 0.00 0.01 0.01 0.01 0.01 0.02 0.01 0.02 0.02 0.03 0.03 0.03 0.03 0.04 0.06 0.08 0.10 0.10 0.10 0.08 0.08 0.07
0.01 0.01 0.01 0.01 0.01 0.01 0.01 0.01 0.01 0.01 0.02 0.05 0.07 0.06 0.04 0.03 0.02 0.02 0.01 0.01 0.01 0.01 0.01 0.01 0.01 0.01 0.01 0.01 0.01 0.01 0.02 0.02 0.03 0.04 0.05 0.06 0.08 0.09 0.10 0.10 0.08 0.07 0.06
MSLP
1016.96 1017.09 1017.18 1017.24 1017.28 1017.34 1017.42 1017.51 1017.61 1017.70 1017.75 1017.75 1017.73 1017.69 1017.67 1017.72 1017.87 1018.13 1018.49 1018.92 1019.38 1019.81 1020.17 1020.44 1020.61 1020.70 1020.74 1020.77 1020.81 1020.88 1020.98 1021.11 1021.25 1021.39 1021.52 1021.64 1021.76 1021.88 1022.02 1022.18 1022.35 1022.51 1022.67
1016.92 1017.04 1017.12 1017.17 1017.21 1017.27 1017.34 1017.44 1017.56 1017.66 1017.73 1017.76 1017.75 1017.72 1017.70 1017.73 1017.84 1018.05 1018.36 1018.74 1019.15 1019.56 1019.93 1020.22 1020.44 1020.58 1020.67 1020.73 1020.79 1020.86 1020.96 1021.07 1021.20 1021.33 1021.45 1021.58 1021.71 1021.86 1022.01 1022.18 1022.36 1022.53 1022.69
1016.90 1017.01 1017.09 1017.14 1017.19 1017.26 1017.35 1017.47 1017.59 1017.72 1017.81 1017.85 1017.85 1017.82 1017.78 1017.78 1017.83 1017.96 1018.19 1018.49 1018.85 1019.22 1019.58 1019.90 1020.15 1020.34 1020.48 1020.59 1020.68 1020.77 1020.87 1020.98 1021.09 1021.22 1021.34 1021.48 1021.62 1021.78 1021.95 1022.13 1022.31 1022.49 1022.66
1016.86 1016.96 1017.05 1017.12 1017.20 1017.29 1017.41 1017.55 1017.70 1017.84 1017.95 1018.01 1018.01 1017.97 1017.90 1017.85 1017.83 1017.88 1018.02 1018.23 1018.51 1018.83 1019.16 1019.47 1019.75 1019.99 1020.18 1020.33 1020.46 1020.58 1020.69 1020.81 1020.92 1021.04 1021.17 1021.31 1021.46 1021.63 1021.80 1021.99 1022.18 1022.36 1022.53
1016.74 1016.85 1016.95 1017.05 1017.17 1017.30 1017.46 1017.64 1017.82 1017.99 1018.11 1018.18 1018.19 1018.14 1018.06 1017.95 1017.87 1017.84 1017.88 1017.99 1018.18 1018.42 1018.70 1018.99 1019.27 1019.53 1019.76 1019.96 1020.13 1020.28 1020.41 1020.54 1020.66 1020.79 1020.92 1021.06 1021.21 1021.38 1021.56 1021.75 1021.94 1022.12 1022.30
1016.52 1016.63 1016.75 1016.90 1017.06 1017.24 1017.45 1017.67 1017.89 1018.08 1018.24 1018.33 1018.36 1018.32 1018.22 1018.09 1017.96 1017.86 1017.81 1017.82 1017.91 1018.06 1018.27 1018.51 1018.77 1019.03 1019.27 1019.50 1019.70 1019.88 1020.04 1020.18 1020.31 1020.44 1020.57 1020.71 1020.86 1021.03 1021.20 1021.38 1021.57 1021.76 1021.93
1016.21 1016.32 1016.46 1016.63 1016.84 1017.07 1017.32 1017.59 1017.85 1018.08 1018.27 1018.40 1018.47 1018.45 1018.38 1018.26 1018.11 1017.96 1017.84 1017.77 1017.76 1017.82 1017.93 1018.10 1018.31 1018.54 1018.78 1019.01 1019.23 1019.43 1019.60 1019.76 1019.90 1020.03 1020.15 1020.28 1020.42 1020.56 1020.73 1020.90 1021.08 1021.27 1021.45
1015.85 1015.94 1016.08 1016.27 1016.51 1016.78 1017.07 1017.37 1017.66 1017.94 1018.17 1018.35 1018.48 1018.53 1018.51 1018.43 1018.30 1018.15 1018.00 1017.87 1017.77 1017.73 1017.75 1017.83 1017.96 1018.14 1018.34 1018.56 1018.78 1018.99 1019.17 1019.33 1019.47 1019.58 1019.69 1019.79 1019.90 1020.02 1020.17 1020.32 1020.50 1020.68 1020.88
1015.48 1015.53 1015.66 1015.86 1016.10 1016.38 1016.69 1017.01 1017.33 1017.63 1017.92 1018.16 1018.36 1018.50 1018.57 1018.58 1018.52 1018.40 1018.26 1018.09 1017.94 1017.82 1017.74 1017.73 1017.78 1017.89 1018.05 1018.24 1018.44 1018.64 1018.81 1018.96 1019.08 1019.17 1019.24 1019.30 1019.37 1019.46 1019.56 1019.70 1019.86 1020.05 1020.26
1015.16 1015.17 1015.26 1015.43 1015.65 1015.92 1016.22 1016.53 1016.86 1017.18 1017.50 1017.81 1018.09 1018.34 1018.53 1018.65 1018.69 1018.65 1018.55 1018.40 1018.22 1018.04 1017.90 1017.81 1017.78 1017.83 1017.93 1018.08 1018.26 1018.43 1018.59 1018.72 1018.80 1018.85 1018.87 1018.88 1018.89 1018.93 1018.99 1019.09 1019.24 1019.43 1019.66
1014.92 1014.87 1014.92 1015.04 1015.22 1015.45 1015.71 1015.99 1016.29 1016.61 1016.95 1017.31 1017.68 1018.03 1018.34 1018.59 1018.75 1018.82 1018.79 1018.68 1018.52 1018.33 1018.14 1018.00 1017.93 1017.93 1017.99 1018.11 1018.26 1018.42 1018.55 1018.64 1018.69 1018.68 1018.64 1018.59 1018.54 1018.51 1018.52 1018.59 1018.72 1018.90 1019.13
1014.78 1014.68 1014.67 1014.74 1014.86 1015.02 1015.22 1015.44 1015.69 1015.98 1016.31 1016.70 1017.12 1017.56 1017.98 1018.35 1018.65 1018.83 1018.90 1018.86 1018.74 1018.57 1018.40 1018.25 1018.16 1018.14 1018.20 1018.31 1018.45 1018.59 1018.70 1018.77 1018.77 1018.71 1018.61 1018.48 1018.36 1018.27 1018.23 1018.26 1018.36 1018.53 1018.75
1014.74 1014.60 1014.55 1014.55 1014.61 1014.69 1014.80 1014.94 1015.11 1015.35 1015.65 1016.02 1016.47 1016.96 1017.46 1017.93 1018.32 1018.61 1018.79 1018.84 1018.79 1018.69 1018.56 1018.45 1018.40 1018.41 1018.49 1018.63 1018.79 1018.93 1019.04 1019.09 1019.05 1018.95 1018.79 1018.61 1018.43 1018.28 1018.19 1018.17 1018.24 1018.38 1018.59
1014.80 1014.65 1014.56 1014.51 1014.50 1014.50 1014.52 1014.56 1014.65 1014.79 1015.03 1015.36 1015.78 1016.27 1016.80 1017.33 1017.80 1018.17 1018.43 1018.58 1018.63 1018.61 1018.57 1018.55 1018.58 1018.67 1018.82 1019.02 1019.22 1019.41 1019.53 1019.58 1019.53 1019.40 1019.21 1018.98 1018.76 1018.57 1018.44 1018.38 1018.41 1018.52 1018.69
1014.96 1014.81 1014.70 1014.62 1014.55 1014.49 1014.43 1014.37 1014.35 1014.40 1014.54 1014.79 1015.15 1015.60 1016.11 1016.63 1017.13 1017.55 1017.87 1018.10 1018.24 1018.34 1018.42 1018.51 1018.66 1018.87 1019.14 1019.43 1019.72 1019.96 1020.14 1020.21 1020.17 1020.04 1019.84 1019.59 1019.35 1019.14 1018.98 1018.90 1018.90 1018.97 1019.10
1015.22 1015.09 1014.99 1014.89 1014.79 1014.68 1014.55 1014.41 1014.30 1014.24 1014.28 1014.42 1014.68 1015.04 1015.48 1015.95 1016.42 1016.84 1017.20 1017.48 1017.72 1017.92 1018.13 1018.37 1018.66 1019.02 1019.42 1019.84 1020.23 1020.56 1020.80 1020.92 1020.91 1020.81 1020.62 1020.39 1020.15 1019.95 1019.79 1019.71 1019.69 1019.72 1019.80
1015.58 1015.49 1015.40 1015.32 1015.21 1015.07 1014.89 1014.70 1014.51 1014.37 1014.30 1014.33 1014.47 1014.71 1015.04 1015.42 1015.81 1016.19 1016.54 1016.86 1017.15 1017.45 1017.78 1018.17 1018.62 1019.12 1019.67 1020.22 1020.72 1021.15 1021.46 1021.64 1021.69 1021.63 1021.48 1021.29 1021.10 1020.93 1020.81 1020.74 1020.72 1020.74 1020.78
1016.02 1015.97 1015.93 1015.87 1015.77 1015.63 1015.44 1015.22 1014.98 1014.77 1014.62 1014.54 1014.57 1014.69 1014.89 1015.15 1015.44 1015.74 1016.05 1016.36 1016.69 1017.06 1017.49 1018.00 1018.58 1019.23 1019.91 1020.57 1021.18 1021.69 1022.08 1022.32 1022.42 1022.41 1022.32 1022.19 1022.07 1021.96 1021.90 1021.88 1021.89 1021.92 1021.94
1016.52 1016.51 1016.51 1016.49 1016.43 1016.31 1016.13 1015.91 1015.66 1015.41 1015.20 1015.05 1014.98 1014.98 1015.06 1015.19 1015.37 1015.58 1015.82 1016.10 1016.43 1016.84 1017.34 1017.93 1018.62 1019.37 1020.14 1020.90 1021.58 1022.15 1022.59 1022.87 1023.02 1023.07 1023.04 1022.99 1022.94 1022.93 1022.95 1023.00 1023.07 1023.14 1023.17
1017.02 1017.06 1017.10 1017.12 1017.10 1017.02 1016.88 1016.68 1016.44 1016.20 1015.97 1015.78 1015.64 1015.56 1015.54 1015.56 1015.63 1015.74 1015.90 1016.13 1016.44 1016.85 1017.37 1018.01 1018.75 1019.56 1020.38 1021.18 1021.90 1022.50 1022.95 1023.27 1023.44 1023.53 1023.56 1023.58 1023.62 1023.70 1023.83 1023.98 1024.14 1024.27 1024.35
1017.48 1017.56 1017.64 1017.70 1017.72 1017.68 1017.58 1017.43 1017.24 1017.02 1016.81 1016.62 1016.46 1016.33 1016.24 1016.19 1016.17 1016.19 1016.28 1016.44 1016.70 1017.08 1017.59 1018.23 1018.97 1019.78 1020.61 1021.41 1022.12 1022.71 1023.15 1023.46 1023.64 1023.76 1023.83 1023.92 1024.04 1024.22 1024.45 1024.71 1024.97 1025.19 1025.34
1017.84 1017.95 1018.07 1018.16 1018.22 1018.22 1018.17 1018.07 1017.93 1017.77 1017.61 1017.45 1017.30 1017.18 1017.06 1016.97 1016.89 1016.85 1016.87 1016.96 1017.16 1017.49 1017.95 1018.55 1019.25 1020.02 1020.81 1021.56 1022.23 1022.77 1023.18 1023.45 1023.63 1023.75 1023.85 1023.98 1024.18 1024.44 1024.77 1025.13 1025.49 1025.81 1026.06
1018.08 1018.23 1018.37 1018.48 1018.56 1018.59 1018.58 1018.53 1018.45 1018.35 1018.26 1018.16 1018.07 1017.98 1017.88 1017.78 1017.69 1017.61 1017.57 1017.61 1017.74 1018.00 1018.39 1018.91 1019.54 1020.24 1020.95 1021.63 1022.22 1022.70 1023.05 1023.29 1023.44 1023.55 1023.66 1023.83 1024.07 1024.40 1024.80 1025.25 1025.70 1026.11 1026.43
1018.20 1018.38 1018.53 1018.66 1018.74 1018.79 1018.80 1018.78 1018.76 1018.73 1018.71 1018.69 1018.67 1018.64 1018.60 1018.53 1018.44 1018.35 1018.28 1018.27 1018.34 1018.52 1018.83 1019.26 1019.80 1020.41 1021.03 1021.62 1022.13 1022.53 1022.83 1023.02 1023.14 1023.23 1023.35 1023.53 1023.79 1024.16 1024.61 1025.11 1025.62 1026.09 1026.48
1018.23 1018.44 1018.60 1018.73 1018.81 1018.85 1018.87 1018.87 1018.89 1018.91 1018.96 1019.02 1019.09 1019.14 1019.16 1019.14 1019.09 1019.00 1018.92 1018.87 1018.89 1019.00 1019.22 1019.56 1020.00 1020.51 1021.04 1021.54 1021.98 1022.32 1022.57 1022.73 1022.82 1022.90 1023.01 1023.19 1023.46 1023.83 1024.29 1024.80 1025.33 1025.82 1026.24
1018.22 1018.46 1018.64 1018.75 1018.82 1018.84 1018.85 1018.87 1018.90 1018.97 1019.08 1019.21 1019.35 1019.48 1019.57 1019.62 1019.60 1019.54 1019.45 1019.38 1019.35 1019.40 1019.54 1019.80 1020.14 1020.56 1021.01 1021.44 1021.82 1022.12 1022.34 1022.48 1022.57 1022.64 1022.75 1022.91 1023.17 1023.52 1023.95 1024.44 1024.94 1025.41 1025.82
Thickness
5752 5751 5749 5749 5751 5750 5750 5749 5751 5750 5750 5750 5751 5751 5751 5750 5748 5747 5742 5737 5734 5732 5731 5729 5727 5726 5724 5722 5721 5720 5718 5717 5716 5715 5714 5713 5712 5711 5710 5709 5708 5707 5706
5751 5750 5749 5748 5750 5751 5751 5750 5751 5750 5751 5751 5751 5751 5750 5750 5747 5745 5744 5740 5736 5734 5732 5730 5729 5727 5725 5723 5722 5720 5719 5717 5716 5715 5714 5713 5712 5711 5710 5709 5708 5707 5706
5751 5750 5751 5750 5751 5750 5750 5750 5750 5751 5751 5751 5751 5750 5750 5748 5748 5745 5745 5743 5740 5736 5734 5732 5730 5728 5726 5724 5723 5721 5719 5718 5716 5715 5714 5713 5712 5711 5710 5708 5707 5706 5705
5751 5751 5752 5753 5751 5751 5751 5750 5751 5752 5751 5751 5750 5751 5751 5749 5748 5746 5746 5744 5743 5742 5737 5734 5731 5729 5727 5725 5723 5722 5720 5719 5717 5715 5714 5713 5712 5711 5709 5708 5707 5706 5705
5752 5751 5752 5752 5752 5752 5752 5752 5752 5751 5750 5749 5750 5750 5751 5751 5750 5749 5748 5746 5745 5743 5742 5737 5733 5731 5728 5726 5725 5723 5721 5720 5718 5716 5714 5713 5712 5711 5709 5708 5707 5706 5704
5753 5753 5753 5752 5753 5753 5752 5751 5749 5749 5749 5749 5752 5752 5752 5752 5751 5751 5749 5748 5746 5744 5743 5741 5736 5734 5730 5728 5726 5724 5723 5721 5719 5717 5715 5714 5712 5711 5709 5708 5707 5705 5704
5754 5753 5754 5752 5752 5752 5751 5752 5750 5749 5749 5750 5748 5747 5751 5753 5752 5751 5750 5749 5747 5745 5743 5741 5739 5737 5734 5730 5727 5725 5723 5722 5720 5718 5716 5715 5713 5711 5710 5708 5707 5705 5704
5754 5755 5753 5753 5752 5751 5750 5750 5749 5748 5750 5751 5746 5743 5742 5746 5749 5753 5750 5747 5746 5745 5743 5741 5738 5735 5733 5732 5729 5726 5724 5722 5720 5719 5717 5715 5713 5712 5710 5708 5706 5705 5703
5755 5753 5753 5753 5752 5752 5751 5750 5749 5747 5746 5748 5748 5743 5738 5737 5743 5748 5747 5746 5744 5742 5742 5741 5738 5735 5732 5731 5729 5726 5723 5721 5720 5718 5716 5715 5713 5711 5710 5708 5706 5705 5703
5755 5754 5753 5752 5752 5752 5751 5750 5752 5749 5747 5745 5746 5746 5745 5744 5736 5736 5741 5743 5741 5739 5738 5738 5737 5734 5732 5729 5726 5724 5721 5719 5718 5716 5714 5713 5711 5710 5708 5707 5705 5704 5702
5754 5754 5753 5752 5751 5752 5751 5749 5749 5749 5748 5746 5744 5744 5743 5741 5740 5733 5732 5735 5736 5737 5736 5734 5733 5731 5729 5727 5724 5722 5719 5716 5714 5713 5711 5710 5708 5707 5706 5704 5703 5702 5700
5755 5754 5753 5752 5752 5751 5750 5749 5748 5748 5747 5746 5745 5744 5741 5739 5737 5735 5731 5730 5730 5732 5733 5731 5729 5728 5725 5724 5721 5718 5716 5713 5711 5709 5708 5707 5705 5704 5702 5701 5700 5699 5697
5753 5752 5752 5750 5751 5750 5749 5748 5747 5747 5746 5744 5743 5742 5742 5740 5739 5735 5731 5728 5726 5728 5728 5727 5726 5724 5722 5720 5717 5714 5711 5709 5707 5705 5703 5702 5701 5700 5699 5697 5696 5695 5693
5752 5751 5750 5749 5748 5747 5748 5746 5747 5746 5744 5743 5742 5740 5738 5739 5737 5735 5730 5726 5721 5722 5722 5720 5721 5719 5717 5714 5711 5708 5706 5704 5702 5700 5698 5697 5696 5695 5694 5692 5691 5690 5688
5751 5749 5748 5747 5745 5744 5744 5744 5743 5742 5741 5740 5739 5737 5735 5735 5734 5733 5730 5726 5720 5715 5715 5715 5714 5713 5710 5708 5705 5703 5700 5698 5696 5694 5692 5691 5689 5688 5687 5685 5684 5683 5681
5747 5746 5744 5744 5743 5742 5741 5740 5739 5737 5736 5735 5733 5731 5730 5730 5729 5728 5727 5725 5721 5716 5710 5710 5707 5706 5704 5701 5699 5696 5693 5691 5689 5687 5685 5683 5682 5680 5678 5677 5675 5674 5673
5743 5741 5740 5740 5739 5738 5737 5735 5734 5732 5731 5729 5728 5726 5724 5724 5724 5724 5723 5721 5718 5714 5708 5704 5703 5700 5696 5694 5691 5689 5688 5685 5682 5679 5677 5675 5673 5671 5669 5667 5665 5664 5663
5739 5738 5736 5735 5734 5733 5731 5730 5728 5727 5725 5723 5722 5720 5719 5719 5718 5717 5717 5715 5713 5709 5704 5698 5695 5693 5689 5687 5684 5683 5681 5678 5675 5671 5669 5666 5663 5661 5659 5656 5655 5653 5651
5736 5734 5732 5730 5728 5727 5725 5724 5722 5721 5719 5718 5716 5714 5713 5712 5711 5711 5709 5709 5707 5705 5700 5695 5690 5686 5683 5680 5678 5676 5673 5670 5667 5663 5659 5656 5653 5651 5648 5645 5644 5642 5640
5731 5729 5726 5725 5723 5721 5720 5718 5717 5715 5713 5711 5709 5707 5706 5704 5703 5703 5702 5700 5698 5696 5693 5689 5685 5681 5676 5673 5671 5668 5665 5661 5658 5655 5651 5647 5643 5640 5637 5634 5632 5629 5627
5727 5724 5721 5719 5717 5715 5713 5711 5711 5709 5706 5704 5702 5700 5697 5694 5692 5692 5693 5691 5690 5688 5686 5682 5678 5674 5669 5664 5662 5660 5656 5653 5648 5645 5642 5638 5634 5631 5626 5622 5619 5616 5614
5721 5718 5715 5713 5710 5707 5702 5702 5703 5702 5699 5696 5694 5692 5690 5687 5684 5681 5679 5678 5677 5677 5675 5673 5669 5664 5659 5656 5653 5651 5648 5645 5639 5635 5632 5628 5624 5620 5614 5609 5605 5603 5601
5715 5712 5709 5706 5703 5698 5695 5695 5694 5695 5693 5689 5686 5685 5685 5680 5678 5676 5672 5669 5666 5664 5662 5662 5658 5654 5651 5648 5644 5642 5637 5634 5629 5625 5622 5616 5612 5608 5603 5596 5593 5591 5589
5709 5705 5702 5700 5696 5691 5688 5687 5687 5688 5685 5681 5679 5676 5674 5671 5669 5667 5666 5662 5659 5655 5653 5651 5648 5644 5642 5638 5636 5633 5629 5625 5620 5616 5612 5607 5601 5597 5593 5586 5581 5578 5576
5702 5699 5696 5693 5689 5684 5681 5681 5681 5682 5678 5674 5670 5666 5665 5661 5656 5655 5656 5653 5650 5646 5641 5638 5636 5633 5630 5627 5626 5626 5622 5619 5613 5608 5603 5599 5593 5588 5583 5578 5572 5567 5564
5696 5694 5689 5686 5683 5679 5674 5674 5674 5677 5672 5668 5663 5659 5652 5650 5647 5646 5647 5645 5641 5638 5636 5634 5629 5625 5623 5619 5616 5614 5614 5611 5606 5600 5593 5590 5586 5581 5576 5570 5564 5560 5556